Regional Weather Roundup
Issued by NWS Cleveland, OH

Home | Current Version | Previous Version | Graphics & Text | Print | Product List | Glossary On
Versions: 1 2 3 4 5 6 7 8 9 10 11 12 13 14 15 16 17 18 19 20 21 22 23 24 25 26 27 28 29 30 31 32 33 34 35 36 37 38 39 40 41 42 43 44 45 46 47 48 49 50
000
ASUS41 KCLE 140512
RWRCLE
OHIO REGIONAL WEATHER ROUNDUP
NATIONAL WEATHER SERVICE WILMINGTON, OH
1200 AM EST SUN FEB 14 2016

NOTE: "FAIR" INDICATES FEW OR NO CLOUDS BELOW 12,000 FEET WITH NO
SIGNIFICANT WEATHER AND/OR OBSTRUCTIONS TO VISIBILITY.

OHZ001>008-015>018-024>027-034-035-043-044-140600-
   NORTHWEST OHIO

CITY           SKY/WX    TMP DP  RH WIND       PRES   REMARKS
DEFIANCE       CLOUDY    14   3  61 NW6       30.48F WCI   5
FINDLAY        CLOUDY    11   4  73 W5        30.45F WCI   3
TOLEDO EXPRESS CLOUDY    13   4  67 N6        30.47S WCI   4
TOLEDO EXEC    CLOUDY    14   0  53 N9        30.48S WCI   2
LIMA           FAIR       7   1  76 W6        30.45F WCI  -3
$$

OHZ009>014-019>023-028>033-038-089-140600-
   NORTHEAST OHIO

CITY           SKY/WX    TMP DP  RH WIND       PRES   REMARKS
CLE-HOPKINS    CLOUDY     8   4  83 SW5       30.47S WCI   0
CLE-LAKEFRONT  CLOUDY    15   3  59 NW12      30.45S WCI   2
CUY CO. ARPT   NOT AVBL
LORAIN-ELYRIA  CLOUDY     8   4  83 CALM      30.46R
ASHTABULA      CLOUDY     9  -6  50 W8        30.41S WCI  -3
AKRON-CANTON   FAIR       2  -3  80 W5        30.40S WCI  -8
WOOSTER        CLOUDY     4   0  83 CALM      30.42S
MANSFIELD      LGT SNOW   9   6  88 W5        30.40S FOG     WCI   1
YOUNGSTOWN     LGT SNOW   4   1  88 SW3       30.39F FOG
$$

OHZ042-051>053-060>062-070>072-077>081-140600-
  SOUTHWEST OHIO

CITY           SKY/WX    TMP DP  RH WIND       PRES   REMARKS
CINC-COVINGTON MOCLDY    13   4  67 CALM      30.46F
CINC-LUNKEN    FAIR      11   6  81 N3        30.52F
HAMILTON       FAIR      11   2  67 NE5       30.51S WCI   3
DAYTON         MOCLDY     7  -1  70 NW5       30.47S WCI  -2
WRIGHT-PAT AFB PTCLDY     5  -1  77 CALM      30.48S
DAYTON GENERAL FAIR       6  -2  69 CALM      30.46F
WILMINGTON     FAIR       3  -3  76 CALM      30.46S
$$

OHZ036-037-039>041-045>050-054>059-063>069-073>076-082>088-140600-
  CENTRAL AND SOUTHEAST OHIO

CITY           SKY/WX    TMP DP  RH WIND       PRES   REMARKS
COLUMBUS       FAIR       7  -3  64 NW7       30.47S WCI  -5
OSU AIRPORT    FAIR       4  -2  76 W7        30.46S WCI  -8
BOLTON FIELD   FAIR       5  -1  75 W3        30.48S
RICKENBACK AFB FAIR       2  -3  81 CALM      30.48S
NEWARK         FAIR       3  -2  79 W6        30.45S WCI  -8
MARION         FAIR       9   1  70 NW7       30.44F WCI  -2
LANCASTER      FAIR      -2  -7  79 CALM      30.48R
ZANESVILLE     FAIR       8   1  73 SW6       30.46R WCI  -2
NEW PHILLY     CLOUDY     6 N/A N/A CALM      30.46R
$$



USA.gov is the U.S. government's official web portal to all federal, state and local government web resources and services.